This is the latest recevied weather packets stored in our database for station/object AE5TC. If no packets are shown the sender has not sent any weather packets the latest 10 day(s).
| Time | Temp. | Humidity | Pressure | Rain* | Wind** | Luminosity | Snow |
|---|---|---|---|---|---|---|---|
| 1778091629 | 28.33° C | 78% | 1016.2 hPa | 0 mm | - | 880 W/m² | - |
| 1778091327 | 28.33° C | 79% | 1016 hPa | 0 mm | - | 817 W/m² | - |
| 1778091023 | 27.78° C | 78% | 1016.4 hPa | 0 mm | - | 801 W/m² | - |
| 1778090720 | 27.78° C | 78% | 1016.3 hPa | 0 mm | - | 824 W/m² | - |
| 1778090416 | 27.78° C | 79% | 1016.3 hPa | 0 mm | - | 226 W/m² | - |
| 1778090113 | 27.78° C | 76% | 1016.3 hPa | 0 mm | - | 413 W/m² | - |
| 1778089809 | 27.78° C | 79% | 1016.1 hPa | 0 mm | - | 855 W/m² | - |
| 1778089508 | 27.22° C | 83% | 1016.3 hPa | 0 mm | - | 787 W/m² | - |
| 1778089204 | 26.67° C | 81% | 1016.4 hPa | 0 mm | - | 754 W/m² | - |
| 1778088902 | 27.22° C | 82% | 1016.2 hPa | 0 mm | - | 685 W/m² | - |
| 1778088598 | 27.78° C | 80% | 1016.3 hPa | 0 mm | - | 329 W/m² | - |
| 1778088296 | 27.22° C | 82% | 1016.4 hPa | 0 mm | - | 654 W/m² | - |
| 1778087992 | 26.67° C | 82% | 1016.2 hPa | 0 mm | - | 262 W/m² | - |
| 1778087689 | 27.22° C | 81% | 1016.3 hPa | 0 mm | - | 284 W/m² | - |
| 1778087387 | 27.22° C | 81% | 1016.1 hPa | 0 mm | - | 539 W/m² | - |
| 1778087083 | 27.22° C | 82% | 1016.2 hPa | 0 mm | - | 352 W/m² | - |
| 1778086777 | 26.67° C | 84% | 1016.1 hPa | 0 mm | - | 449 W/m² | - |
| 1778086474 | 26.67° C | 84% | 1016.2 hPa | 0 mm | - | 714 W/m² | - |
| 1778086170 | 26.67° C | 83% | 1016.1 hPa | 0 mm | - | 367 W/m² | - |
| 1778085867 | 26.67° C | 83% | 1016 hPa | 0 mm | - | 385 W/m² | - |
| 1778085559 | 26.11° C | 84% | 1015.8 hPa | 0 mm | - | 724 W/m² | - |
| 1778085254 | 26.67° C | 82% | 1015.7 hPa | 0 mm | - | 228 W/m² | - |
| 1778084948 | 26.67° C | 83% | 1016 hPa | 0 mm | - | 265 W/m² | - |
| 1778084647 | 27.22° C | 79% | 1015.8 hPa | 0 mm | - | 352 W/m² | - |
| 1778084338 | 26.67° C | 83% | 1015.9 hPa | 0 mm | - | 880 W/m² | - |
* Rain latest hour (hover to see other rain measurements)
** Current wind speed in m/s (hover to see current wind gust speed)